Simultaneous Nadir Overpasses (SNOs) Predictions

Prediction of SNOs between METOP-A and NOAA-19 Satellite Orbit:

Table of predicted SNOs for the next 14.0 days since TLE Epoch: 10/16/2021
Index Date (METOP-A) Time (METOP-A) Lat,Lon (METOP-A) SZA (METOP-A ) Date (NOAA-19) Time (NOAA-19) Lat,Lon (NOAA-19) SZA (NOAA-19 ) Distance(km) Time Diff (sec)
1 10/25/2021 10:44:57 -80.24,-163.50 87.56 10/25/2021 10:43:50 -80.25,-163.34 87.55 3.25 67
2 10/25/2021 11:35:36 80.28, 4.21 92.50 10/25/2021 11:34:52 80.27, 4.16 92.49 1.28 44
3 10/25/2021 12:26:17 -80.29, 171.62 87.49 10/25/2021 12:25:49 -80.28, 171.56 87.50 1.43 28
4 10/25/2021 13:16:57 80.29, -20.97 92.54 10/25/2021 13:16:51 80.29, -20.94 92.54 0.61 6
5 10/25/2021 14:07:37 -80.30, 146.44 87.45 10/25/2021 14:07:47 -80.30, 146.46 87.45 0.50 10
6 10/25/2021 14:58:17 80.31, -46.16 92.58 10/25/2021 14:58:49 80.32, -46.04 92.59 2.48 32
7 10/25/2021 15:48:58 -80.32, 121.26 87.41 10/25/2021 15:49:46 -80.33, 121.37 87.40 2.41 48



Historial Predications of SNOs between METOP-A and NOAA-19
